Regional Weather Roundup
Issued by NWS

Home | Current Version | Previous Version | Graphics & Text | Print | Product List | Glossary On
Versions: 1 2 3 4 5 6 7 8 9 10 11 12 13 14 15 16 17 18 19 20 21 22 23 24 25 26 27 28 29 30 31 32 33 34 35 36 37 38 39 40 41 42 43 44 45 46 47 48 49 50
546
ASUS45 KCYS 111810
RWRWY

WYOMING REGIONAL WEATHER ROUNDUP
NATIONAL WEATHER SERVICE CHEYENNE WY
1100 AM MST MON DEC 11 2017

NOTE:  "FAIR" INDICATES FEW OR NO CLOUDS BELOW 12,000 FEET
WITH NO SIGNIFICANT WEATHER AND/OR OBSTRUCTIONS TO VISIBILITY.

WYZ001-111900-
YELLOWSTONE NATIONAL PARK

CITY           SKY/WX    TMP DP  RH WIND       PRES   REMARKS
LK YELLOWSTONE   N/A     23  20  88 CALM      30.59F
6HR MIN TEMP:   2; 6HR MAX TEMP:  23;

W YELLOWSTONE  NOT AVBL

$$
WYZ002>013-054>058-071-098>099-111900-
NORTHERN WYOMING

CITY           SKY/WX    TMP DP  RH WIND       PRES   REMARKS
JACKSON        FAIR      26  15  63 CALM      30.63F
CODY           FAIR      46  10  23 CALM      30.45S
GREYBULL       FAIR      25  15  66 CALM      30.47S
6HR MIN TEMP:   9; 6HR MAX TEMP:  25;

WORLAND        FAIR      31  21  66 CALM      30.46S
6HR MIN TEMP:   9; 6HR MAX TEMP:  31;

SHERIDAN       FAIR      48  16  27 NW16      30.43R
6HR MIN TEMP:  31; 6HR MAX TEMP:  48;

BUFFALO        FAIR      46  12  25 N22       30.41R
6HR MIN TEMP:  37; 6HR MAX TEMP:  46;

GILLETTE       FAIR      44  17  33 NW18      30.38R
6HR MIN TEMP:  27; 6HR MAX TEMP:  44;

HULETT         FAIR      37  21  52 NW10G16   30.37F WCI  30
NEWCASTLE      FAIR      37  16  41 NW18G28   30.34S WCI  27

$$
WYZ014>020-022>026-101>103-111900-
CENTRAL WYOMING

CITY           SKY/WX    TMP DP  RH WIND       PRES   REMARKS
BIG PINEY      FAIR      48   3  15 N9        30.51S
6HR MIN TEMP:  15; 6HR MAX TEMP:  48;

PINEDALE       FAIR      48  12  23 NW21G28   30.49F
DUBOIS         FAIR      46  18  31 W29G35    30.46S
LANDER         FAIR      29  16  58 SE3       30.46S
6HR MIN TEMP:  11; 6HR MAX TEMP:  29;

RIVERTON       FAIR      29  17  61 CALM      30.47R
6HR MIN TEMP:  12; 6HR MAX TEMP:  29;

CASPER         FAIR      39  15  37 SW13G22   30.43R WCI  31
6HR MIN TEMP:  27; 6HR MAX TEMP:  39;

DOUGLAS        FAIR      44  20  38 NW12      30.41S
6HR MIN TEMP:  21; 6HR MAX TEMP:  44;


$$
WYZ021-027>030-104>119-111900-
SOUTHERN WYOMING

CITY           SKY/WX    TMP DP  RH WIND       PRES   REMARKS
EVANSTON       FAIR      36  13  38 S3        30.57S
6HR MIN TEMP:  24; 6HR MAX TEMP:  36;

FORT BRIDGER   FAIR      48   3  16 W8        30.57S
ROCK SPRINGS   FAIR     N/A N/A N/A MISG      30.52S
DIXON          FAIR      28  12  52 CALM      30.56F
RAWLINS        FAIR      36  10  34 W18G26    30.49S WCI  26
6HR MIN TEMP:  21; 6HR MAX TEMP:  36;

SARATOGA       FAIR      30  12  47 S6        30.51F WCI  24
LARAMIE        FAIR      46   6  19 NW28G37   30.40F
6HR MIN TEMP:  15; 6HR MAX TEMP:  46;

CHEYENNE       FAIR      50   3  14 NW23G31   30.37R
6HR MIN TEMP:  35; 6HR MAX TEMP:  50;

TORRINGTON     FAIR      48  15  26 N17G30    30.37R
6HR MIN TEMP:  29; 6HR MAX TEMP:  48;

PINE BLUFFS    FAIR      46   5  18 NW25      30.37S

$$




USA.gov is the U.S. government's official web portal to all federal, state and local government web resources and services.